Location: *
(51.8167°N, 12.5000°E)
Time: 08:21:28
(UTC+00:00)

Cosmos 2341 Rocket - Pass Details

Date: 16 September 2019
Orbit: 967 x 1005 km, 82.9° (Epoch: 17 October)

Event Time Altitude Azimuth Distance (km) Brightness Sun altitude
Rises 19:08:32 0° 349° (NNW) 3,704 7.6 -16.4°
Reaches altitude 10° 19:11:04 10° 348° (NNW) 2,746 6.9 -16.8°
Maximum altitude 19:17:22 82° 263° (W) 991 4.1 -17.6°
Drops below altitude 10° 19:23:34 10° 176° (S) 2,707 6.0 -18.5°
Enters shadow 19:23:54 - 176° (S) 2,830 6.1 -18.5°
